Time,TemperatureF,DewpointF,PressureIn,WindDirection,WindDirectionDegrees,WindSpeedMPH,WindSpeedGustMPH,Humidity,HourlyPrecipIn,Conditions,Clouds,dailyrainin,SoftwareType,DateUTC
2013-02-03 00:03:00,47.3,40.0,29.52,SSW,203,1.5,6.7,76,0.04,,,0.00,WUHU216HW,2013-02-02 23:03:00,
2013-02-03 00:08:00,47.1,39.9,29.52,ENE,68,0.0,2.2,76,0.04,,,0.00,WUHU216HW,2013-02-02 23:08:00,
2013-02-03 00:13:00,47.1,39.9,29.51,South,191,3.3,3.5,76,0.04,,,0.00,WUHU216HW,2013-02-02 23:13:00,
2013-02-03 00:18:00,47.3,40.0,29.51,SE,135,2.9,5.5,76,0.04,,,0.00,WUHU216HW,2013-02-02 23:18:00,
2013-02-03 00:23:00,47.4,40.2,29.50,South,180,1.1,5.5,76,0.02,,,0.00,WUHU216HW,2013-02-02 23:23:00,
2013-02-03 00:28:00,47.8,39.8,29.50,South,171,3.8,6.9,74,0.02,,,0.00,WUHU216HW,2013-02-02 23:28:00,
2013-02-03 00:33:00,48.0,39.3,29.50,SSW,212,4.0,6.9,72,0.02,,,0.00,WUHU216HW,2013-02-02 23:33:00,
2013-02-03 00:38:00,48.2,39.5,29.50,South,180,3.8,6.7,72,0.02,,,0.00,WUHU216HW,2013-02-02 23:38:00,
2013-02-03 00:43:00,48.2,39.8,29.51,SSE,158,1.1,4.2,73,0.02,,,0.00,WUHU216HW,2013-02-02 23:43:00,
2013-02-03 00:48:00,48.2,39.8,29.50,East,90,1.5,2.2,73,0.02,,,0.00,WUHU216HW,2013-02-02 23:48:00,
2013-02-03 00:53:00,48.2,40.0,29.51,SE,135,1.7,2.2,74,0.00,,,0.00,WUHU216HW,2013-02-02 23:53:00,
2013-02-03 00:58:00,48.7,40.4,29.51,South,170,3.1,7.3,73,0.00,,,0.00,WUHU216HW,2013-02-02 23:58:00,
2013-02-03 01:03:00,49.1,40.7,29.52,SSW,203,1.5,7.3,73,0.00,,,0.00,WUHU216HW,2013-02-03 00:03:00,
2013-02-03 01:08:00,49.2,40.9,29.51,SW,225,2.4,6.7,73,0.00,,,0.00,WUHU216HW,2013-02-03 00:08:00,
2013-02-03 01:13:00,49.4,41.3,29.51,SSE,158,1.5,6.7,73,0.00,,,0.00,WUHU216HW,2013-02-03 00:13:00,
2013-02-03 01:18:00,49.4,41.1,29.51,South,173,1.7,6.2,73,0.00,,,0.00,WUHU216HW,2013-02-03 00:18:00,
2013-02-03 01:23:00,48.9,41.6,29.50,North,0,2.9,4.2,76,0.00,,,0.00,WUHU216HW,2013-02-03 00:23:00,
2013-02-03 01:28:00,47.8,40.5,29.51,NW,315,2.2,4.2,76,0.00,,,0.00,WUHU216HW,2013-02-03 00:28:00,
2013-02-03 01:33:00,47.3,39.7,29.51,NNE,23,0.8,2.4,75,0.00,,,0.00,WUHU216HW,2013-02-03 00:33:00,
2013-02-03 01:38:00,47.1,39.2,29.51,ENE,68,1.6,1.7,74,0.00,,,0.00,WUHU216HW,2013-02-03 00:38:00,
2013-02-03 01:43:00,47.3,39.3,29.52,NE,45,2.0,2.0,74,0.00,,,0.00,WUHU216HW,2013-02-03 00:43:00,
2013-02-03 01:48:00,47.1,38.5,29.52,NE,45,0.0,2.0,72,0.00,,,0.00,WUHU216HW,2013-02-03 00:48:00,
2013-02-03 01:53:00,47.1,37.4,29.52,ENE,68,2.7,3.1,69,0.00,,,0.00,WUHU216HW,2013-02-03 00:53:00,
2013-02-03 01:58:00,46.9,37.3,29.52,NNW,338,2.6,3.3,69,0.00,,,0.00,WUHU216HW,2013-02-03 00:58:00,
2013-02-03 02:03:00,46.7,36.7,29.52,WNW,293,0.0,3.3,68,0.00,,,0.00,WUHU216HW,2013-02-03 01:03:00,
2013-02-03 02:08:00,46.5,35.7,29.52,East,90,0.8,2.2,66,0.00,,,0.00,WUHU216HW,2013-02-03 01:08:00,
2013-02-03 02:13:00,46.5,35.0,29.52,NNE,23,0.0,3.1,64,0.00,,,0.00,WUHU216HW,2013-02-03 01:13:00,
2013-02-03 02:18:00,46.5,34.8,29.52,SE,135,0.0,3.1,64,0.00,,,0.00,WUHU216HW,2013-02-03 01:18:00,
2013-02-03 02:23:00,46.2,33.8,29.52,NNW,338,1.7,3.5,62,0.00,,,0.00,WUHU216HW,2013-02-03 01:23:00,
2013-02-03 02:28:00,46.2,33.8,29.52,East,90,2.7,3.5,62,0.00,,,0.00,WUHU216HW,2013-02-03 01:28:00,
2013-02-03 02:33:00,46.2,33.4,29.52,ENE,68,1.1,3.1,61,0.00,,,0.00,WUHU216HW,2013-02-03 01:33:00,
2013-02-03 02:38:00,46.2,33.8,29.52,SW,225,0.0,2.6,62,0.00,,,0.00,WUHU216HW,2013-02-03 01:38:00,
2013-02-03 02:43:00,46.2,35.0,29.51,ESE,113,0.0,1.5,65,0.00,,,0.00,WUHU216HW,2013-02-03 01:43:00,
2013-02-03 02:48:00,46.7,37.7,29.51,East,90,2.7,3.1,72,0.00,,,0.00,WUHU216HW,2013-02-03 01:48:00,
2013-02-03 02:53:00,46.9,38.3,29.51,East,90,0.0,3.1,72,0.00,,,0.00,WUHU216HW,2013-02-03 01:53:00,
2013-02-03 02:58:00,46.9,39.0,29.51,ESE,113,1.6,2.4,74,0.00,,,0.00,WUHU216HW,2013-02-03 01:58:00,
2013-02-03 03:03:00,47.1,39.2,29.50,SE,135,0.0,2.4,74,0.00,,,0.00,WUHU216HW,2013-02-03 02:03:00,
2013-02-03 03:10:00,47.1,39.2,29.50,SE,135,0.0,0.0,74,0.00,,,0.00,WUHU216HW,2013-02-03 02:10:00,
2013-02-03 03:15:00,46.9,38.7,29.51,SSW,204,2.4,3.5,73,0.00,,,0.00,WUHU216HW,2013-02-03 02:15:00,
2013-02-03 03:20:00,47.1,39.2,29.51,SSW,192,3.0,4.4,74,0.00,,,0.00,WUHU216HW,2013-02-03 02:20:00,
2013-02-03 03:25:00,47.4,39.9,29.51,SSE,160,1.3,4.4,75,0.00,,,0.00,WUHU216HW,2013-02-03 02:25:00,
2013-02-03 03:30:00,47.8,40.2,29.50,SE,135,2.7,3.5,75,0.00,,,0.00,WUHU216HW,2013-02-03 02:30:00,
2013-02-03 03:35:00,48.0,40.7,29.50,ESE,107,1.0,3.8,76,0.00,,,0.00,WUHU216HW,2013-02-03 02:35:00,
2013-02-03 03:40:00,48.0,40.7,29.51,WSW,248,0.8,3.8,76,0.00,,,0.00,WUHU216HW,2013-02-03 02:40:00,
2013-02-03 03:45:00,48.0,40.3,29.51,West,279,3.8,4.4,75,0.02,,,0.02,WUHU216HW,2013-02-03 02:45:00,
2013-02-03 03:50:00,47.3,39.3,29.51,WNW,293,5.3,5.3,74,0.02,,,0.02,WUHU216HW,2013-02-03 02:50:00,
2013-02-03 03:55:00,46.9,39.0,29.51,WSW,248,2.2,5.3,74,0.02,,,0.02,WUHU216HW,2013-02-03 02:55:00,
2013-02-03 04:00:00,46.7,38.9,29.51,ESE,113,1.1,5.3,74,0.02,,,0.02,WUHU216HW,2013-02-03 03:00:00,
2013-02-03 04:05:00,46.7,38.5,29.51,ESE,113,3.5,3.5,73,0.02,,,0.02,WUHU216HW,2013-02-03 03:05:00,
2013-02-03 04:10:00,46.9,38.7,29.51,SE,135,1.7,3.5,73,0.02,,,0.02,WUHU216HW,2013-02-03 03:10:00,
2013-02-03 04:15:00,46.9,38.7,29.52,SE,135,1.5,2.4,73,0.02,,,0.02,WUHU216HW,2013-02-03 03:15:00,
2013-02-03 04:20:00,46.9,38.7,29.51,ESE,102,2.4,3.5,73,0.02,,,0.02,WUHU216HW,2013-02-03 03:20:00,
2013-02-03 04:25:00,47.1,38.8,29.52,West,270,1.0,4.2,73,0.02,,,0.02,WUHU216HW,2013-02-03 03:25:00,
2013-02-03 04:30:00,47.1,38.5,29.52,North,0,0.0,4.2,72,0.02,,,0.02,WUHU216HW,2013-02-03 03:30:00,
2013-02-03 04:35:00,47.1,38.8,29.52,ENE,68,2.2,2.2,73,0.02,,,0.02,WUHU216HW,2013-02-03 03:35:00,
2013-02-03 04:40:00,48.0,40.7,29.52,South,180,2.2,10.9,76,0.02,,,0.02,WUHU216HW,2013-02-03 03:40:00,
2013-02-03 04:45:00,48.7,41.4,29.52,South,180,9.1,10.9,76,0.00,,,0.02,WUHU216HW,2013-02-03 03:45:00,
2013-02-03 04:50:00,49.2,41.6,29.52,SE,135,5.3,9.1,75,0.00,,,0.02,WUHU216HW,2013-02-03 03:50:00,
2013-02-03 04:55:00,49.2,41.2,29.52,NE,45,2.4,5.8,74,0.00,,,0.02,WUHU216HW,2013-02-03 03:55:00,
2013-02-03 05:00:00,49.2,41.2,29.52,East,90,1.5,5.8,74,0.00,,,0.02,WUHU216HW,2013-02-03 04:00:00,
2013-02-03 05:05:00,48.9,41.2,29.52,East,96,2.0,5.8,75,0.00,,,0.02,WUHU216HW,2013-02-03 04:05:00,
2013-02-03 05:10:00,48.9,41.2,29.52,East,79,5.2,6.2,75,0.00,,,0.02,WUHU216HW,2013-02-03 04:10:00,
2013-02-03 05:15:00,49.4,41.1,29.52,SE,146,4.8,8.7,73,0.00,,,0.02,WUHU216HW,2013-02-03 04:15:00,
2013-02-03 05:20:00,49.8,41.1,29.52,SSE,148,5.6,8.7,72,0.00,,,0.02,WUHU216HW,2013-02-03 04:20:00,
2013-02-03 05:25:00,49.8,40.8,29.52,ESE,113,5.3,12.0,71,0.00,,,0.02,WUHU216HW,2013-02-03 04:25:00,
2013-02-03 05:30:00,50.5,41.1,29.52,SSE,158,14.6,17.0,70,0.00,,,0.02,WUHU216HW,2013-02-03 04:30:00,
2013-02-03 05:35:00,51.0,40.8,29.53,SSE,158,6.0,17.0,68,0.00,,,0.02,WUHU216HW,2013-02-03 04:35:00,
2013-02-03 05:40:00,51.0,40.8,29.53,SSE,158,4.9,6.7,68,0.00,,,0.02,WUHU216HW,2013-02-03 04:40:00,
2013-02-03 05:45:00,51.2,40.6,29.52,SSE,158,9.8,9.8,67,0.00,,,0.02,WUHU216HW,2013-02-03 04:45:00,
2013-02-03 05:50:00,51.4,40.4,29.52,SE,126,2.5,9.8,66,0.00,,,0.02,WUHU216HW,2013-02-03 04:50:00,
2013-02-03 05:55:00,51.6,40.1,29.52,SSE,158,3.3,11.1,65,0.00,,,0.02,WUHU216HW,2013-02-03 04:55:00,
2013-02-03 06:00:00,51.6,39.7,29.53,SSE,158,8.0,11.1,64,0.00,,,0.02,WUHU216HW,2013-02-03 05:00:00,
2013-02-03 06:01:00,51.6,39.7,29.53,ENE,68,10.5,11.1,64,0.00,,,0.02,WUHU216HW,2013-02-03 05:01:00,
2013-02-03 06:06:00,51.6,39.3,29.54,South,172,8.0,10.7,63,0.00,,,0.02,WUHU216HW,2013-02-03 05:06:00,
2013-02-03 06:11:00,51.2,39.8,29.54,SW,234,5.4,11.8,65,0.00,,,0.02,WUHU216HW,2013-02-03 05:11:00,
2013-02-03 06:16:00,50.5,40.3,29.54,SSE,157,4.9,11.8,68,0.00,,,0.02,WUHU216HW,2013-02-03 05:16:00,
2013-02-03 06:21:00,50.1,40.4,29.54,SSW,203,6.4,8.0,69,0.00,,,0.02,WUHU216HW,2013-02-03 05:21:00,
2013-02-03 06:26:00,50.1,40.0,29.54,SE,135,2.4,8.0,68,0.00,,,0.02,WUHU216HW,2013-02-03 05:26:00,
2013-02-03 06:31:00,50.3,39.3,29.54,SE,135,4.4,6.0,66,0.00,,,0.02,WUHU216HW,2013-02-03 05:31:00,
2013-02-03 06:36:00,50.5,39.1,29.54,ESE,102,4.8,7.6,65,0.00,,,0.02,WUHU216HW,2013-02-03 05:36:00,
2013-02-03 06:41:00,50.9,39.5,29.54,SSE,148,4.2,12.0,65,0.00,,,0.02,WUHU216HW,2013-02-03 05:41:00,
2013-02-03 06:46:00,50.7,39.3,29.54,South,180,9.8,12.0,65,0.00,,,0.02,WUHU216HW,2013-02-03 05:46:00,
2013-02-03 06:51:00,51.0,39.6,29.55,South,180,14.0,14.0,65,0.00,,,0.02,WUHU216HW,2013-02-03 05:51:00,
2013-02-03 06:56:00,51.2,39.4,29.55,SSW,203,6.9,14.0,64,0.00,,,0.02,WUHU216HW,2013-02-03 05:56:00,
2013-02-03 07:01:00,51.2,39.4,29.56,SSW,203,4.4,10.0,64,0.00,,,0.02,WUHU216HW,2013-02-03 06:01:00,
2013-02-03 07:06:00,51.0,39.6,29.56,South,180,4.4,10.0,65,0.00,,,0.02,WUHU216HW,2013-02-03 06:06:00,
2013-02-03 07:11:00,50.7,39.7,29.56,South,180,5.2,8.9,66,0.00,,,0.02,WUHU216HW,2013-02-03 06:11:00,
2013-02-03 07:16:00,50.1,40.0,29.57,SSE,155,10.5,17.0,68,0.00,,,0.02,WUHU216HW,2013-02-03 06:16:00,
2013-02-03 07:21:00,49.4,40.2,29.57,SSE,158,4.0,17.0,71,0.00,,,0.02,WUHU216HW,2013-02-03 06:21:00,
2013-02-03 07:26:00,48.7,40.0,29.57,South,169,4.7,10.2,72,0.00,,,0.02,WUHU216HW,2013-02-03 06:26:00,
2013-02-03 07:31:00,48.5,39.8,29.57,ESE,113,7.1,7.1,72,0.00,,,0.02,WUHU216HW,2013-02-03 06:31:00,
2013-02-03 07:36:00,48.3,40.0,29.57,SSE,158,6.2,8.0,73,0.00,,,0.02,WUHU216HW,2013-02-03 06:36:00,
2013-02-03 07:41:00,48.5,39.8,29.58,ESE,113,2.4,8.0,72,0.00,,,0.02,WUHU216HW,2013-02-03 06:41:00,
2013-02-03 07:46:00,48.5,39.8,29.58,SSE,158,9.2,10.2,72,0.00,,,0.02,WUHU216HW,2013-02-03 06:46:00,
2013-02-03 07:51:00,48.5,40.2,29.59,SSW,207,4.8,17.0,73,0.02,,,0.04,WUHU216HW,2013-02-03 06:51:00,
2013-02-03 07:56:00,48.0,40.0,29.59,SSW,193,7.6,17.0,74,0.04,,,0.06,WUHU216HW,2013-02-03 06:56:00,
2013-02-03 08:01:00,47.6,40.0,29.59,ESE,113,3.1,10.5,75,0.04,,,0.06,WUHU216HW,2013-02-03 07:01:00,
2013-02-03 08:06:00,47.3,40.0,29.58,SE,135,6.2,6.2,76,0.04,,,0.06,WUHU216HW,2013-02-03 07:06:00,
2013-02-03 08:11:00,47.1,39.9,29.58,East,94,7.3,9.8,76,0.04,,,0.06,WUHU216HW,2013-02-03 07:11:00,
2013-02-03 08:16:00,47.4,40.2,29.58,ESE,116,3.8,11.8,76,0.04,,,0.06,WUHU216HW,2013-02-03 07:16:00,
2013-02-03 08:21:00,47.4,40.2,29.58,ESE,113,7.1,11.8,76,0.04,,,0.06,WUHU216HW,2013-02-03 07:21:00,
2013-02-03 08:26:00,48.2,40.7,29.59,SSE,158,4.0,14.0,75,0.04,,,0.06,WUHU216HW,2013-02-03 07:26:00,
2013-02-03 08:31:00,49.1,40.7,29.59,SE,135,5.3,14.0,73,0.04,,,0.06,WUHU216HW,2013-02-03 07:31:00,
2013-02-03 08:37:00,49.8,40.8,29.59,South,180,6.0,11.4,71,0.04,,,0.06,WUHU216HW,2013-02-03 07:37:00,
2013-02-03 08:42:00,49.8,40.4,29.59,SE,135,10.1,15.2,70,0.04,,,0.06,WUHU216HW,2013-02-03 07:42:00,
2013-02-03 08:47:00,50.0,40.6,29.59,ESE,113,9.1,15.2,70,0.02,,,0.06,WUHU216HW,2013-02-03 07:47:00,
2013-02-03 08:52:00,50.1,40.4,29.60,SE,135,7.6,10.9,69,0.02,,,0.06,WUHU216HW,2013-02-03 07:52:00,
2013-02-03 08:57:00,50.1,40.8,29.60,SSE,158,13.5,17.4,70,0.02,,,0.08,WUHU216HW,2013-02-03 07:57:00,
2013-02-03 09:02:00,48.9,40.5,29.61,WSW,241,5.4,17.4,73,0.05,,,0.11,WUHU216HW,2013-02-03 08:02:00,
2013-02-03 09:07:00,48.0,40.3,29.62,South,180,6.9,8.5,75,0.07,,,0.13,WUHU216HW,2013-02-03 08:07:00,
2013-02-03 09:12:00,47.4,40.2,29.61,SE,140,2.0,6.9,76,0.07,,,0.13,WUHU216HW,2013-02-03 08:12:00,
2013-02-03 09:18:00,47.4,40.2,29.62,ESE,113,8.5,8.5,76,0.07,,,0.13,WUHU216HW,2013-02-03 08:18:00,
2013-02-03 09:23:00,47.4,40.2,29.62,SE,135,3.9,8.5,76,0.07,,,0.13,WUHU216HW,2013-02-03 08:23:00,
2013-02-03 09:30:00,47.6,40.4,29.62,ESE,113,0.0,8.5,76,0.09,,,0.15,WUHU216HW,2013-02-03 08:30:00,
2013-02-03 09:35:00,48.0,40.7,29.63,South,180,8.9,8.9,76,0.09,,,0.15,WUHU216HW,2013-02-03 08:35:00,
2013-02-03 09:40:00,48.3,41.0,29.63,SSE,158,3.1,8.9,76,0.09,,,0.15,WUHU216HW,2013-02-03 08:40:00,
2013-02-03 09:45:00,49.1,41.4,29.63,SSW,203,2.4,6.9,75,0.09,,,0.15,WUHU216HW,2013-02-03 08:45:00,
2013-02-03 09:50:00,49.6,41.6,29.63,SSW,203,7.6,7.8,74,0.09,,,0.15,WUHU216HW,2013-02-03 08:50:00,
2013-02-03 09:55:00,49.8,41.8,29.63,SSE,158,4.8,10.5,74,0.09,,,0.15,WUHU216HW,2013-02-03 08:55:00,
2013-02-03 10:00:00,50.1,42.0,29.63,SSW,203,1.5,10.5,74,0.04,,,0.15,WUHU216HW,2013-02-03 09:00:00,
2013-02-03 10:05:00,50.3,42.0,29.63,SSE,158,9.3,9.3,73,0.02,,,0.15,WUHU216HW,2013-02-03 09:05:00,
2013-02-03 10:10:00,50.5,41.8,29.63,South,180,6.2,11.8,72,0.02,,,0.15,WUHU216HW,2013-02-03 09:10:00,
2013-02-03 10:15:00,50.5,41.8,29.64,ESE,113,7.1,11.8,72,0.02,,,0.15,WUHU216HW,2013-02-03 09:15:00,
2013-02-03 10:20:00,50.7,41.7,29.64,ESE,113,5.4,7.1,71,0.02,,,0.15,WUHU216HW,2013-02-03 09:20:00,
2013-02-03 10:25:00,50.9,41.8,29.64,SSE,149,5.6,6.2,71,0.00,,,0.15,WUHU216HW,2013-02-03 09:25:00,
2013-02-03 10:30:00,51.4,42.4,29.64,SE,135,1.7,6.2,71,0.00,,,0.15,WUHU216HW,2013-02-03 09:30:00,
2013-02-03 10:35:00,51.6,41.8,29.64,SE,135,6.4,6.4,69,0.00,,,0.15,WUHU216HW,2013-02-03 09:35:00,
2013-02-03 10:40:00,51.8,41.6,29.65,South,180,3.5,11.4,68,0.00,,,0.15,WUHU216HW,2013-02-03 09:40:00,
2013-02-03 10:45:00,51.9,41.7,29.64,SSE,158,2.0,11.4,68,0.00,,,0.15,WUHU216HW,2013-02-03 09:45:00,
2013-02-03 10:50:00,51.8,41.6,29.65,East,90,3.8,8.0,68,0.00,,,0.15,WUHU216HW,2013-02-03 09:50:00,
2013-02-03 10:55:00,51.6,41.4,29.65,SE,146,5.9,10.2,68,0.00,,,0.15,WUHU216HW,2013-02-03 09:55:00,
2013-02-03 11:00:00,51.4,41.6,29.65,East,90,7.1,10.2,69,0.00,,,0.15,WUHU216HW,2013-02-03 10:00:00,
2013-02-03 11:05:00,51.0,40.8,29.66,ESE,113,3.3,7.1,68,0.00,,,0.15,WUHU216HW,2013-02-03 10:05:00,
2013-02-03 11:10:00,51.0,41.3,29.66,ESE,113,6.9,6.9,69,0.00,,,0.15,WUHU216HW,2013-02-03 10:10:00,
2013-02-03 11:15:00,51.0,41.7,29.66,ESE,113,3.8,6.9,70,0.00,,,0.15,WUHU216HW,2013-02-03 10:15:00,
2013-02-03 11:20:00,51.0,41.7,29.66,ESE,113,3.5,4.9,70,0.00,,,0.15,WUHU216HW,2013-02-03 10:20:00,
2013-02-03 11:25:00,50.7,42.3,29.67,SSE,158,4.8,6.9,73,0.02,,,0.17,WUHU216HW,2013-02-03 10:25:00,
2013-02-03 11:30:00,50.7,43.0,29.66,SSE,158,5.3,6.9,75,0.02,,,0.17,WUHU216HW,2013-02-03 10:30:00,
2013-02-03 11:35:00,51.6,43.6,29.66,SE,135,7.8,10.2,74,0.02,,,0.17,WUHU216HW,2013-02-03 10:35:00,
2013-02-03 11:40:00,52.8,44.4,29.66,ESE,113,2.9,10.2,73,0.02,,,0.17,WUHU216HW,2013-02-03 10:40:00,
2013-02-03 11:46:00,54.5,45.4,29.66,ESE,113,2.6,7.6,71,0.02,,,0.17,WUHU216HW,2013-02-03 10:46:00,
2013-02-03 11:51:00,55.0,43.8,29.66,SSE,147,4.5,5.3,66,0.02,,,0.17,WUHU216HW,2013-02-03 10:51:00,
2013-02-03 11:56:00,53.9,42.8,29.66,SSW,203,8.9,11.1,66,0.02,,,0.17,WUHU216HW,2013-02-03 10:56:00,
2013-02-03 12:01:00,52.8,42.6,29.67,SSE,158,2.9,11.1,68,0.02,,,0.17,WUHU216HW,2013-02-03 11:01:00,
2013-02-03 12:06:00,52.7,42.8,29.68,SW,225,3.5,9.6,69,0.02,,,0.17,WUHU216HW,2013-02-03 11:06:00,
2013-02-03 12:11:00,51.6,42.2,29.69,West,270,14.2,17.0,71,0.04,,,0.19,WUHU216HW,2013-02-03 11:11:00,
2013-02-03 12:16:00,49.6,41.2,29.70,WSW,248,8.9,17.0,74,0.06,,,0.21,WUHU216HW,2013-02-03 11:16:00,
2013-02-03 12:21:00,48.7,41.4,29.69,SSW,210,1.0,15.4,76,0.06,,,0.21,WUHU216HW,2013-02-03 11:21:00,
2013-02-03 12:26:00,48.5,41.2,29.69,SE,135,1.3,6.4,76,0.06,,,0.23,WUHU216HW,2013-02-03 11:26:00,
2013-02-03 12:31:00,49.6,41.9,29.69,SSE,158,0.0,3.3,75,0.06,,,0.23,WUHU216HW,2013-02-03 11:31:00,
2013-02-03 12:36:00,51.2,43.6,29.68,ENE,68,2.5,2.6,75,0.06,,,0.23,WUHU216HW,2013-02-03 11:36:00,
2013-02-03 12:41:00,51.0,42.9,29.69,SW,225,3.5,4.2,75,0.06,,,0.23,WUHU216HW,2013-02-03 11:41:00,
2013-02-03 12:46:00,51.0,43.4,29.69,WSW,248,0.6,4.2,75,0.06,,,0.23,WUHU216HW,2013-02-03 11:46:00,
2013-02-03 12:51:00,51.0,43.4,29.69,SW,225,1.3,2.0,75,0.06,,,0.23,WUHU216HW,2013-02-03 11:51:00,
2013-02-03 12:56:00,51.0,43.4,29.69,NW,315,2.4,2.4,75,0.08,,,0.25,WUHU216HW,2013-02-03 11:56:00,
2013-02-03 13:01:00,50.7,42.7,29.70,North,0,4.2,4.2,74,0.08,,,0.25,WUHU216HW,2013-02-03 12:01:00,
2013-02-03 13:06:00,50.1,42.1,29.69,NNW,338,2.2,4.2,74,0.08,,,0.25,WUHU216HW,2013-02-03 12:06:00,
2013-02-03 13:11:00,49.8,42.0,29.70,North,0,1.3,3.8,74,0.06,,,0.25,WUHU216HW,2013-02-03 12:11:00,
2013-02-03 13:16:00,50.0,41.4,29.69,NE,45,0.0,3.3,73,0.04,,,0.25,WUHU216HW,2013-02-03 12:16:00,
2013-02-03 13:21:00,50.5,41.5,29.70,NNE,23,1.5,3.3,71,0.04,,,0.25,WUHU216HW,2013-02-03 12:21:00,
2013-02-03 13:26:00,50.7,41.7,29.70,East,90,2.6,5.1,71,0.02,,,0.25,WUHU216HW,2013-02-03 12:26:00,
2013-02-03 13:31:00,50.3,42.7,29.69,ENE,68,8.9,8.9,75,0.02,,,0.25,WUHU216HW,2013-02-03 12:31:00,
2013-02-03 13:36:00,50.5,42.8,29.71,WSW,248,2.4,8.9,75,0.02,,,0.25,WUHU216HW,2013-02-03 12:36:00,
2013-02-03 13:41:00,50.1,42.0,29.71,WNW,293,5.1,5.1,73,0.04,,,0.27,WUHU216HW,2013-02-03 12:41:00,
2013-02-03 13:46:00,49.6,41.3,29.72,NNW,334,4.8,7.1,73,0.04,,,0.27,WUHU216HW,2013-02-03 12:46:00,
2013-02-03 13:51:00,48.7,41.0,29.72,East,79,5.4,8.0,75,0.04,,,0.27,WUHU216HW,2013-02-03 12:51:00,
2013-02-03 13:56:00,48.0,40.3,29.71,NE,45,10.7,10.7,75,0.02,,,0.27,WUHU216HW,2013-02-03 12:56:00,
2013-02-03 14:01:00,47.6,40.2,29.71,ENE,76,8.8,13.6,75,0.02,,,0.27,WUHU216HW,2013-02-03 13:01:00,
2013-02-03 14:06:00,47.4,39.9,29.72,ENE,68,12.0,14.9,75,0.02,,,0.27,WUHU216HW,2013-02-03 13:06:00,
2013-02-03 14:11:00,47.4,39.9,29.72,NE,54,11.4,14.9,75,0.02,,,0.27,WUHU216HW,2013-02-03 13:11:00,
2013-02-03 14:16:00,47.4,38.8,29.73,NNE,23,10.5,14.3,72,0.02,,,0.27,WUHU216HW,2013-02-03 13:16:00,
2013-02-03 14:21:00,47.1,38.8,29.74,ENE,58,11.5,13.6,73,0.02,,,0.27,WUHU216HW,2013-02-03 13:21:00,
2013-02-03 14:26:00,46.9,38.7,29.75,NNE,23,10.7,13.6,73,0.02,,,0.27,WUHU216HW,2013-02-03 13:26:00,
2013-02-03 14:32:00,45.1,38.0,29.76,ENE,68,8.6,11.8,76,0.10,,,0.35,WUHU216HW,2013-02-03 13:32:00,
2013-02-03 14:37:00,45.3,38.1,29.76,ENE,68,17.8,17.8,76,0.12,,,0.37,WUHU216HW,2013-02-03 13:37:00,
2013-02-03 14:42:00,45.1,38.0,29.76,ENE,68,16.5,17.8,76,0.12,,,0.39,WUHU216HW,2013-02-03 13:42:00,
2013-02-03 14:47:00,44.7,37.6,29.77,ENE,68,11.1,16.5,76,0.12,,,0.39,WUHU216HW,2013-02-03 13:47:00,
2013-02-03 14:52:00,44.2,37.4,29.77,East,84,10.7,15.6,77,0.12,,,0.39,WUHU216HW,2013-02-03 13:52:00,
2013-02-03 14:57:00,43.8,36.9,29.77,ENE,78,14.9,15.8,76,0.12,,,0.39,WUHU216HW,2013-02-03 13:57:00,
2013-02-03 15:02:00,44.2,37.1,29.77,ENE,68,15.6,15.8,76,0.12,,,0.39,WUHU216HW,2013-02-03 14:02:00,
2013-02-03 15:07:00,44.4,37.2,29.77,ENE,68,12.5,15.6,76,0.12,,,0.39,WUHU216HW,2013-02-03 14:07:00,
2013-02-03 15:12:00,44.6,37.1,29.78,NE,45,16.7,18.3,75,0.12,,,0.39,WUHU216HW,2013-02-03 14:12:00,
2013-02-03 15:17:00,44.7,37.3,29.78,ENE,68,10.9,18.7,75,0.12,,,0.39,WUHU216HW,2013-02-03 14:17:00,
2013-02-03 15:22:00,44.7,37.3,29.78,ENE,68,14.3,18.7,75,0.12,,,0.39,WUHU216HW,2013-02-03 14:22:00,
2013-02-03 15:27:00,44.6,37.1,29.79,East,90,6.4,14.3,75,0.08,,,0.39,WUHU216HW,2013-02-03 14:27:00,
2013-02-03 15:32:00,44.6,37.4,29.80,ENE,57,2.1,10.7,76,0.04,,,0.39,WUHU216HW,2013-02-03 14:32:00,
2013-02-03 15:37:00,44.7,37.6,29.80,ENE,68,9.1,9.1,76,0.02,,,0.39,WUHU216HW,2013-02-03 14:37:00,
2013-02-03 15:42:00,45.1,37.6,29.80,NNE,23,6.0,9.1,75,0.00,,,0.39,WUHU216HW,2013-02-03 14:42:00,
2013-02-03 15:47:00,45.1,37.6,29.79,NE,45,3.3,7.8,76,0.00,,,0.39,WUHU216HW,2013-02-03 14:47:00,
2013-02-03 15:52:00,45.1,37.6,29.80,ENE,68,5.3,7.8,75,0.00,,,0.39,WUHU216HW,2013-02-03 14:52:00,
2013-02-03 15:57:00,45.1,38.0,29.80,NNE,23,4.0,7.8,76,0.00,,,0.39,WUHU216HW,2013-02-03 14:57:00,
2013-02-03 16:02:00,45.1,38.0,29.80,North,0,0.0,4.0,76,0.00,,,0.39,WUHU216HW,2013-02-03 15:02:00,
2013-02-03 16:07:00,45.1,38.0,29.81,North,0,2.4,2.9,76,0.00,,,0.39,WUHU216HW,2013-02-03 15:07:00,
2013-02-03 16:12:00,44.9,37.8,29.81,North,6,1.0,2.9,76,0.00,,,0.39,WUHU216HW,2013-02-03 15:12:00,
2013-02-03 16:17:00,44.9,37.8,29.81,NNE,23,0.0,2.4,76,0.00,,,0.39,WUHU216HW,2013-02-03 15:17:00,
2013-02-03 16:22:00,45.1,38.0,29.81,West,270,0.0,3.5,76,0.00,,,0.39,WUHU216HW,2013-02-03 15:22:00,
2013-02-03 16:27:00,45.1,38.1,29.81,SSW,203,2.0,3.5,76,0.00,,,0.39,WUHU216HW,2013-02-03 15:27:00,
2013-02-03 16:33:00,45.3,38.1,29.81,South,180,7.6,7.6,76,0.00,,,0.39,WUHU216HW,2013-02-03 15:33:00,
2013-02-03 16:38:00,44.7,37.3,29.82,SW,225,6.9,7.6,75,0.00,,,0.39,WUHU216HW,2013-02-03 15:38:00,
2013-02-03 16:43:00,44.4,36.6,29.83,South,172,7.3,9.3,74,0.00,,,0.39,WUHU216HW,2013-02-03 15:43:00,
2013-02-03 16:48:00,44.4,36.6,29.83,South,173,6.0,9.3,74,0.00,,,0.39,WUHU216HW,2013-02-03 15:48:00,
2013-02-03 16:53:00,44.4,36.6,29.84,SSW,203,9.6,9.6,74,0.00,,,0.39,WUHU216HW,2013-02-03 15:53:00,
2013-02-03 16:58:00,44.4,36.9,29.84,SSW,207,5.1,9.6,75,0.00,,,0.39,WUHU216HW,2013-02-03 15:58:00,
2013-02-03 17:03:00,44.4,37.2,29.84,SW,225,4.6,9.1,75,0.00,,,0.39,WUHU216HW,2013-02-03 16:03:00,
2013-02-03 17:08:00,44.4,37.2,29.85,SW,225,4.3,9.1,76,0.00,,,0.39,WUHU216HW,2013-02-03 16:08:00,
2013-02-03 17:13:00,44.4,37.2,29.85,SW,233,2.8,6.0,76,0.00,,,0.39,WUHU216HW,2013-02-03 16:13:00,
2013-02-03 17:18:00,44.4,37.2,29.85,SW,225,2.6,6.0,76,0.00,,,0.39,WUHU216HW,2013-02-03 16:18:00,
2013-02-03 17:23:00,44.4,37.2,29.85,SSW,213,3.4,5.1,76,0.00,,,0.39,WUHU216HW,2013-02-03 16:23:00,
2013-02-03 17:28:00,44.4,37.2,29.86,SW,225,2.2,3.5,76,0.00,,,0.39,WUHU216HW,2013-02-03 16:28:00,
2013-02-03 17:33:00,44.4,36.9,29.86,NNE,23,2.2,3.1,75,0.00,,,0.39,WUHU216HW,2013-02-03 16:33:00,
2013-02-03 17:38:00,44.4,36.9,29.86,NE,53,3.2,4.2,76,0.00,,,0.39,WUHU216HW,2013-02-03 16:38:00,
2013-02-03 17:43:00,44.4,36.9,29.86,ENE,68,2.0,4.2,75,0.00,,,0.39,WUHU216HW,2013-02-03 16:43:00,
2013-02-03 17:48:00,44.4,37.6,29.86,East,90,0.0,2.0,77,0.00,,,0.39,WUHU216HW,2013-02-03 16:48:00,
2013-02-03 17:53:00,44.6,37.4,29.86,WNW,293,0.0,2.0,76,0.00,,,0.39,WUHU216HW,2013-02-03 16:53:00,
2013-02-03 17:58:00,44.7,37.6,29.87,WSW,248,1.7,2.4,76,0.00,,,0.39,WUHU216HW,2013-02-03 16:58:00,
2013-02-03 18:03:00,44.7,37.6,29.87,SW,225,6.2,7.8,76,0.00,,,0.39,WUHU216HW,2013-02-03 17:03:00,
2013-02-03 18:09:00,44.4,37.2,29.88,SSW,203,5.8,7.8,76,0.00,,,0.39,WUHU216HW,2013-02-03 17:09:00,
2013-02-03 18:14:00,44.4,36.9,29.88,SSE,158,4.4,5.8,75,0.00,,,0.39,WUHU216HW,2013-02-03 17:14:00,
2013-02-03 18:19:00,44.2,37.1,29.88,SSW,193,3.0,4.4,76,0.00,,,0.39,WUHU216HW,2013-02-03 17:19:00,
2013-02-03 18:24:00,44.2,37.1,29.88,South,180,0.0,3.5,76,0.00,,,0.39,WUHU216HW,2013-02-03 17:24:00,
2013-02-03 18:29:00,44.2,36.7,29.88,NNW,338,0.0,0.8,75,0.00,,,0.39,WUHU216HW,2013-02-03 17:29:00,
2013-02-03 18:34:00,44.2,36.7,29.88,North,0,0.0,0.8,76,0.00,,,0.39,WUHU216HW,2013-02-03 17:34:00,
2013-02-03 18:39:00,44.2,36.7,29.88,NE,45,0.6,0.8,75,0.00,,,0.39,WUHU216HW,2013-02-03 17:39:00,
2013-02-03 18:44:00,44.2,36.7,29.88,WNW,293,0.0,1.3,75,0.00,,,0.39,WUHU216HW,2013-02-03 17:44:00,
2013-02-03 18:49:00,44.2,36.7,29.88,SW,225,3.8,3.8,75,0.00,,,0.39,WUHU216HW,2013-02-03 17:49:00,
2013-02-03 18:54:00,44.2,36.7,29.89,South,180,2.5,3.8,75,0.00,,,0.39,WUHU216HW,2013-02-03 17:54:00,
2013-02-03 18:59:00,44.2,36.7,29.89,South,180,3.5,3.5,75,0.00,,,0.39,WUHU216HW,2013-02-03 17:59:00,
2013-02-03 19:04:00,44.2,36.7,29.89,SW,215,2.8,4.4,75,0.00,,,0.39,WUHU216HW,2013-02-03 18:04:00,
2013-02-03 19:09:00,44.4,36.9,29.89,SW,225,3.8,4.4,75,0.00,,,0.39,WUHU216HW,2013-02-03 18:09:00,
2013-02-03 19:14:00,44.4,36.9,29.90,SSW,212,2.0,4.6,75,0.00,,,0.39,WUHU216HW,2013-02-03 18:14:00,
2013-02-03 19:19:00,44.4,37.2,29.90,SSE,158,1.5,4.6,76,0.00,,,0.39,WUHU216HW,2013-02-03 18:19:00,
2013-02-03 19:24:00,44.7,37.6,29.91,South,180,4.2,4.2,76,0.00,,,0.39,WUHU216HW,2013-02-03 18:24:00,
2013-02-03 19:29:00,44.9,37.8,29.91,SW,225,3.5,4.2,76,0.00,,,0.39,WUHU216HW,2013-02-03 18:29:00,
2013-02-03 19:34:00,44.9,37.8,29.91,WSW,248,3.3,4.0,76,0.00,,,0.39,WUHU216HW,2013-02-03 18:34:00,
2013-02-03 19:39:00,44.9,37.8,29.91,East,90,0.0,4.0,76,0.00,,,0.39,WUHU216HW,2013-02-03 18:39:00,
2013-02-03 19:44:00,44.6,37.2,29.91,ENE,68,0.8,2.4,76,0.00,,,0.39,WUHU216HW,2013-02-03 18:44:00,
2013-02-03 19:49:00,44.4,37.2,29.92,East,90,1.1,2.4,76,0.00,,,0.39,WUHU216HW,2013-02-03 18:49:00,
2013-02-03 19:54:00,44.2,37.1,29.92,SSW,203,2.0,2.0,76,0.00,,,0.39,WUHU216HW,2013-02-03 18:54:00,
2013-02-03 19:59:00,44.2,37.4,29.92,NNE,23,1.7,2.0,77,0.00,,,0.39,WUHU216HW,2013-02-03 18:59:00,
2013-02-03 20:04:00,43.8,36.9,29.92,NE,45,2.4,3.1,76,0.00,,,0.39,WUHU216HW,2013-02-03 19:04:00,
2013-02-03 20:09:00,43.7,36.6,29.92,ESE,113,1.5,3.1,76,0.00,,,0.39,WUHU216HW,2013-02-03 19:09:00,
2013-02-03 20:14:00,43.7,36.6,29.92,SSE,158,2.6,2.6,76,0.00,,,0.39,WUHU216HW,2013-02-03 19:14:00,
2013-02-03 20:19:00,43.7,36.6,29.92,North,0,3.1,3.1,76,0.00,,,0.39,WUHU216HW,2013-02-03 19:19:00,
2013-02-03 20:24:00,43.7,36.6,29.92,East,90,5.5,5.5,76,0.00,,,0.39,WUHU216HW,2013-02-03 19:24:00,
2013-02-03 20:29:00,44.7,34.4,29.93,ENE,68,3.8,5.5,67,0.00,,,0.39,WUHU216HW,2013-02-03 19:29:00,
2013-02-03 20:34:00,45.5,33.9,29.93,NE,51,4.2,8.9,64,0.00,,,0.39,WUHU216HW,2013-02-03 19:34:00,
2013-02-03 20:39:00,46.0,33.7,29.92,East,90,8.5,8.9,62,0.00,,,0.39,WUHU216HW,2013-02-03 19:39:00,
2013-02-03 20:44:00,46.2,33.8,29.93,NE,56,3.0,9.8,62,0.00,,,0.39,WUHU216HW,2013-02-03 19:44:00,
2013-02-03 20:49:00,46.2,33.4,29.93,East,90,3.3,9.8,61,0.00,,,0.39,WUHU216HW,2013-02-03 19:49:00,
2013-02-03 20:54:00,46.0,33.7,29.93,ENE,68,2.4,5.3,62,0.00,,,0.39,WUHU216HW,2013-02-03 19:54:00,
2013-02-03 20:59:00,46.0,32.9,29.93,ENE,68,4.0,4.6,60,0.00,,,0.39,WUHU216HW,2013-02-03 19:59:00,
2013-02-03 21:04:00,46.0,32.9,29.94,ENE,68,2.4,4.6,60,0.00,,,0.39,WUHU216HW,2013-02-03 20:04:00,
2013-02-03 21:09:00,46.0,32.9,29.94,East,90,2.9,4.2,60,0.00,,,0.39,WUHU216HW,2013-02-03 20:09:00,
2013-02-03 21:14:00,46.0,32.0,29.94,ENE,68,9.6,9.6,58,0.00,,,0.39,WUHU216HW,2013-02-03 20:14:00,
2013-02-03 21:19:00,46.0,32.4,29.94,SE,135,4.2,9.6,59,0.00,,,0.39,WUHU216HW,2013-02-03 20:19:00,
2013-02-03 21:24:00,46.0,32.4,29.94,NNE,26,3.0,5.8,59,0.00,,,0.39,WUHU216HW,2013-02-03 20:24:00,
2013-02-03 21:29:00,45.6,32.1,29.94,ENE,68,9.8,9.8,59,0.00,,,0.39,WUHU216HW,2013-02-03 20:29:00,
2013-02-03 21:34:00,46.0,32.0,29.95,ENE,75,5.8,9.8,58,0.00,,,0.39,WUHU216HW,2013-02-03 20:34:00,
2013-02-03 21:39:00,46.0,31.1,29.95,ESE,118,3.5,10.7,57,0.00,,,0.39,WUHU216HW,2013-02-03 20:39:00,
2013-02-03 21:44:00,46.0,31.5,29.95,ENE,68,4.0,10.7,57,0.00,,,0.39,WUHU216HW,2013-02-03 20:44:00,
2013-02-03 21:49:00,46.0,31.5,29.96,ENE,61,2.6,7.6,57,0.00,,,0.39,WUHU216HW,2013-02-03 20:49:00,
2013-02-03 21:54:00,46.0,31.1,29.96,ENE,77,7.9,12.5,56,0.00,,,0.39,WUHU216HW,2013-02-03 20:54:00,
2013-02-03 21:59:00,46.2,31.2,29.96,ENE,68,11.8,12.5,56,0.00,,,0.39,WUHU216HW,2013-02-03 20:59:00,
2013-02-03 22:05:00,46.2,31.2,29.96,NE,56,9.1,12.3,56,0.00,,,0.39,WUHU216HW,2013-02-03 21:05:00,
2013-02-03 22:09:00,46.2,31.7,29.97,East,100,5.4,12.9,57,0.00,,,0.39,WUHU216HW,2013-02-03 21:09:00,
2013-02-03 22:15:00,46.0,32.0,29.97,ESE,113,8.0,12.9,58,0.00,,,0.39,WUHU216HW,2013-02-03 21:15:00,
2013-02-03 22:20:00,46.0,32.0,29.97,ENE,59,4.4,8.9,58,0.00,,,0.39,WUHU216HW,2013-02-03 21:20:00,
2013-02-03 22:25:00,46.0,31.5,29.97,East,88,8.2,11.4,57,0.00,,,0.39,WUHU216HW,2013-02-03 21:25:00,
2013-02-03 22:30:00,46.0,31.5,29.98,SSW,203,6.4,11.4,57,0.00,,,0.39,WUHU216HW,2013-02-03 21:30:00,
2013-02-03 22:35:00,46.2,31.7,29.98,East,80,6.5,9.1,57,0.00,,,0.39,WUHU216HW,2013-02-03 21:35:00,
2013-02-03 22:40:00,46.0,31.1,29.98,ENE,76,5.6,9.1,56,0.00,,,0.39,WUHU216HW,2013-02-03 21:40:00,
2013-02-03 22:45:00,46.2,30.8,29.99,ENE,66,10.8,13.6,55,0.00,,,0.39,WUHU216HW,2013-02-03 21:45:00,
2013-02-03 22:50:00,46.2,30.8,29.99,SE,135,5.1,13.6,55,0.00,,,0.39,WUHU216HW,2013-02-03 21:50:00,
2013-02-03 22:55:00,46.2,30.3,29.98,ENE,68,6.2,8.9,54,0.00,,,0.39,WUHU216HW,2013-02-03 21:55:00,
2013-02-03 23:00:00,46.2,30.3,29.99,East,90,8.2,8.9,54,0.00,,,0.39,WUHU216HW,2013-02-03 22:00:00,
2013-02-03 23:05:00,46.2,29.9,29.99,East,90,9.1,9.1,53,0.00,,,0.39,WUHU216HW,2013-02-03 22:05:00,
2013-02-03 23:10:00,46.2,29.9,29.99,East,90,8.0,12.7,53,0.00,,,0.39,WUHU216HW,2013-02-03 22:10:00,
2013-02-03 23:15:00,46.2,29.9,29.99,ENE,78,3.2,12.7,52,0.00,,,0.39,WUHU216HW,2013-02-03 22:15:00,
2013-02-03 23:20:00,46.2,29.4,29.99,NNE,27,4.9,8.0,52,0.00,,,0.39,WUHU216HW,2013-02-03 22:20:00,
2013-02-03 23:25:00,46.2,29.0,29.99,East,99,5.8,7.1,51,0.00,,,0.39,WUHU216HW,2013-02-03 22:25:00,
2013-02-03 23:30:00,46.5,28.9,29.99,SSE,158,3.8,8.9,50,0.00,,,0.39,WUHU216HW,2013-02-03 22:30:00,
2013-02-03 23:35:00,46.5,28.9,29.99,ENE,68,6.2,10.5,50,0.00,,,0.39,WUHU216HW,2013-02-03 22:35:00,
2013-02-03 23:40:00,46.5,28.3,29.99,ESE,113,3.8,10.5,49,0.00,,,0.39,WUHU216HW,2013-02-03 22:40:00,
2013-02-03 23:45:00,46.5,28.3,29.99,ENE,68,9.6,9.6,49,0.00,,,0.39,WUHU216HW,2013-02-03 22:45:00,
2013-02-03 23:50:00,46.5,28.3,30.00,East,101,7.4,10.9,49,0.00,,,0.39,WUHU216HW,2013-02-03 22:50:00,
2013-02-03 23:55:00,46.5,28.3,30.00,NE,37,4.1,10.9,49,0.00,,,0.39,WUHU216HW,2013-02-03 22:55:00,